Time,TemperatureF,DewpointF,PressureIn,WindDirection,WindDirectionDegrees,WindSpeedMPH,WindSpeedGustMPH,Humidity,HourlyPrecipIn,Conditions,Clouds,dailyrainin,SoftwareType,DateUTC
2013-01-28 00:08:00,36.6,32.0,29.69,NW,315,2.0,-999.0,82,-99.99,,,0.00,weatherlink.com 1.10,2013-01-28 07:08:00,
2013-01-28 00:23:00,36.5,32.0,29.70,West,269,0.0,-999.0,82,-99.99,,,0.00,weatherlink.com 1.10,2013-01-28 07:23:00,
2013-01-28 00:38:00,36.2,31.0,29.71,West,269,0.0,-999.0,82,-99.99,,,0.00,weatherlink.com 1.10,2013-01-28 07:38:00,
2013-01-28 00:53:00,35.8,31.0,29.71,West,269,0.0,-999.0,83,-99.99,,,0.00,weatherlink.com 1.10,2013-01-28 07:53:00,
2013-01-28 01:08:00,35.5,31.0,29.70,West,269,0.0,-999.0,83,-99.99,,,0.00,weatherlink.com 1.10,2013-01-28 08:08:00,
2013-01-28 01:23:00,35.5,31.0,29.70,West,269,0.0,-999.0,83,-99.99,,,0.00,weatherlink.com 1.10,2013-01-28 08:23:00,
2013-01-28 01:38:00,35.6,31.0,29.68,West,269,0.0,-999.0,83,-99.99,,,0.00,weatherlink.com 1.10,2013-01-28 08:38:00,
2013-01-28 01:53:00,35.6,31.0,29.69,West,269,0.0,-999.0,83,-99.99,,,0.00,weatherlink.com 1.10,2013-01-28 08:53:00,
2013-01-28 02:08:00,35.2,31.0,29.69,West,269,0.0,-999.0,83,-99.99,,,0.00,weatherlink.com 1.10,2013-01-28 09:08:00,
2013-01-28 02:23:00,34.7,30.0,29.73,West,269,0.0,-999.0,83,-99.99,,,0.00,weatherlink.com 1.10,2013-01-28 09:23:00,
2013-01-28 02:38:00,34.1,30.0,29.73,West,269,0.0,-999.0,84,-99.99,,,0.00,weatherlink.com 1.10,2013-01-28 09:38:00,
2013-01-28 02:53:00,33.5,29.0,29.73,West,269,0.0,-999.0,84,-99.99,,,0.00,weatherlink.com 1.10,2013-01-28 09:53:00,
2013-01-28 03:08:00,33.5,30.0,29.74,West,269,0.0,-999.0,85,-99.99,,,0.00,weatherlink.com 1.10,2013-01-28 10:08:00,
2013-01-28 03:23:00,33.5,30.0,29.67,West,269,0.0,-999.0,85,-99.99,,,0.00,weatherlink.com 1.10,2013-01-28 10:23:00,
2013-01-28 03:38:00,34.1,30.0,29.67,West,269,0.0,-999.0,86,-99.99,,,0.00,weatherlink.com 1.10,2013-01-28 10:38:00,
2013-01-28 03:53:00,34.4,31.0,29.66,West,269,0.0,-999.0,86,-99.99,,,0.00,weatherlink.com 1.10,2013-01-28 10:53:00,
2013-01-28 04:08:00,34.6,31.0,29.65,West,269,0.0,-999.0,85,-99.99,,,0.00,weatherlink.com 1.10,2013-01-28 11:08:00,
2013-01-28 04:23:00,34.4,30.0,29.66,West,269,0.0,-999.0,85,-99.99,,,0.00,weatherlink.com 1.10,2013-01-28 11:23:00,
2013-01-28 04:38:00,34.1,30.0,29.66,West,269,0.0,-999.0,85,-99.99,,,0.00,weatherlink.com 1.10,2013-01-28 11:38:00,
2013-01-28 04:53:00,34.0,30.0,29.65,West,269,0.0,-999.0,86,-99.99,,,0.00,weatherlink.com 1.10,2013-01-28 11:53:00,
2013-01-28 05:08:00,34.1,30.0,29.65,West,269,0.0,-999.0,86,-99.99,,,0.00,weatherlink.com 1.10,2013-01-28 12:08:00,
2013-01-28 05:23:00,34.0,30.0,29.67,West,269,0.0,-999.0,86,-99.99,,,0.00,weatherlink.com 1.10,2013-01-28 12:23:00,
2013-01-28 05:38:00,34.0,30.0,29.67,West,269,0.0,-999.0,86,-99.99,,,0.00,weatherlink.com 1.10,2013-01-28 12:38:00,
2013-01-28 05:53:00,34.0,30.0,29.66,NE,34,0.0,-999.0,86,-99.99,,,0.00,weatherlink.com 1.10,2013-01-28 12:53:00,
2013-01-28 06:08:00,34.4,31.0,29.66,SSW,194,1.0,-999.0,86,-99.99,,,0.00,weatherlink.com 1.10,2013-01-28 13:08:00,
2013-01-28 06:23:00,34.6,31.0,29.67,WSW,251,4.0,-999.0,86,-99.99,,,0.00,weatherlink.com 1.10,2013-01-28 13:23:00,
2013-01-28 06:38:00,35.5,31.0,29.67,West,275,3.0,-999.0,84,-99.99,,,0.00,weatherlink.com 1.10,2013-01-28 13:38:00,
2013-01-28 06:53:00,34.7,31.0,29.69,West,280,1.0,-999.0,85,-99.99,,,0.00,weatherlink.com 1.10,2013-01-28 13:53:00,
2013-01-28 07:08:00,35.0,31.0,29.70,West,280,0.0,-999.0,85,-99.99,,,0.00,weatherlink.com 1.10,2013-01-28 14:08:00,
2013-01-28 07:23:00,34.9,31.0,29.67,West,280,0.0,-999.0,84,-99.99,,,0.00,weatherlink.com 1.10,2013-01-28 14:23:00,
2013-01-28 07:38:00,35.2,31.0,29.68,West,280,1.0,-999.0,84,-99.99,,,0.00,weatherlink.com 1.10,2013-01-28 14:38:00,
2013-01-28 07:53:00,35.8,31.0,29.70,West,280,0.0,-999.0,83,-99.99,,,0.00,weatherlink.com 1.10,2013-01-28 14:53:00,
2013-01-28 08:08:00,35.8,31.0,29.70,West,280,1.0,-999.0,84,-99.99,,,0.00,weatherlink.com 1.10,2013-01-28 15:08:00,
2013-01-28 08:23:00,36.0,32.0,29.71,West,280,0.0,-999.0,84,-99.99,,,0.00,weatherlink.com 1.10,2013-01-28 15:23:00,
2013-01-28 08:38:00,-999.0,-99.9,29.71,North,-999,-999.0,-999.0,-999,-99.99,,,0.00,weatherlink.com 1.10,2013-01-28 15:38:00,
2013-01-28 08:53:00,-999.0,-99.9,29.65,North,-999,-999.0,-999.0,-999,-99.99,,,0.00,weatherlink.com 1.10,2013-01-28 15:53:00,
2013-01-28 09:09:00,-999.0,-99.9,29.65,North,-999,-999.0,-999.0,-999,-99.99,,,0.00,weatherlink.com 1.10,2013-01-28 16:09:00,
2013-01-28 09:24:00,-999.0,-99.9,29.72,North,-999,-999.0,-999.0,-999,-99.99,,,0.00,weatherlink.com 1.10,2013-01-28 16:24:00,
2013-01-28 09:39:00,-999.0,-99.9,29.72,North,-999,-999.0,-999.0,-999,-99.99,,,0.00,weatherlink.com 1.10,2013-01-28 16:39:00,
2013-01-28 09:54:00,-999.0,-99.9,29.72,North,-999,-999.0,-999.0,-999,-99.99,,,0.00,weatherlink.com 1.10,2013-01-28 16:54:00,
2013-01-28 10:09:00,-999.0,-99.9,29.74,North,-999,-999.0,-999.0,-999,-99.99,,,0.00,weatherlink.com 1.10,2013-01-28 17:09:00,
2013-01-28 10:24:00,36.9,33.0,29.77,West,280,0.0,-999.0,85,-99.99,,,0.00,weatherlink.com 1.10,2013-01-28 17:24:00,
2013-01-28 10:39:00,37.2,33.0,29.76,West,280,0.0,-999.0,84,-99.99,,,0.00,weatherlink.com 1.10,2013-01-28 17:39:00,
2013-01-28 10:54:00,37.3,33.0,29.77,West,280,1.0,-999.0,83,-99.99,,,0.00,weatherlink.com 1.10,2013-01-28 17:54:00,
2013-01-28 11:09:00,37.6,33.0,29.76,West,280,2.0,-999.0,82,-99.99,,,0.00,weatherlink.com 1.10,2013-01-28 18:09:00,
2013-01-28 11:24:00,38.0,33.0,29.76,NW,320,1.0,-999.0,82,-99.99,,,0.00,weatherlink.com 1.10,2013-01-28 18:24:00,
2013-01-28 11:39:00,37.8,32.0,29.75,NNW,334,1.0,-999.0,80,-99.99,,,0.00,weatherlink.com 1.10,2013-01-28 18:39:00,
2013-01-28 11:54:00,37.6,32.0,29.76,NNW,334,3.0,-999.0,80,-99.99,,,0.00,weatherlink.com 1.10,2013-01-28 18:54:00,
2013-01-28 12:09:00,38.0,27.0,29.75,WNW,293,2.0,-999.0,66,-99.99,,,0.00,weatherlink.com 1.10,2013-01-28 19:09:00,
2013-01-28 12:24:00,39.3,27.0,29.75,NW,319,3.0,-999.0,61,-99.99,,,0.00,weatherlink.com 1.10,2013-01-28 19:24:00,
2013-01-28 12:39:00,38.8,26.0,29.75,NNW,338,1.0,-999.0,61,-99.99,,,0.00,weatherlink.com 1.10,2013-01-28 19:39:00,
2013-01-28 12:54:00,38.2,26.0,29.75,NNW,337,5.0,-999.0,62,-99.99,,,0.00,weatherlink.com 1.10,2013-01-28 19:54:00,
2013-01-28 13:09:00,36.8,28.0,29.75,NW,325,4.0,-999.0,71,-99.99,,,0.00,weatherlink.com 1.10,2013-01-28 20:09:00,
2013-01-28 13:24:00,33.8,29.0,29.78,NW,313,0.0,-999.0,81,-99.99,,,0.00,weatherlink.com 1.10,2013-01-28 20:24:00,
2013-01-28 13:39:00,33.2,29.0,29.78,NW,313,0.0,-999.0,83,-99.99,,,0.00,weatherlink.com 1.10,2013-01-28 20:39:00,
2013-01-28 13:54:00,33.1,29.0,29.79,WNW,303,0.0,-999.0,84,-99.99,,,0.00,weatherlink.com 1.10,2013-01-28 20:54:00,
2013-01-28 14:09:00,33.2,29.0,29.79,WNW,303,0.0,-999.0,84,-99.99,,,0.00,weatherlink.com 1.10,2013-01-28 21:09:00,
2013-01-28 14:24:00,33.5,29.0,29.80,East,100,1.0,-999.0,84,-99.99,,,0.01,weatherlink.com 1.10,2013-01-28 21:24:00,
2013-01-28 14:39:00,33.5,29.0,29.80,ESE,122,1.0,-999.0,83,-99.99,,,0.02,weatherlink.com 1.10,2013-01-28 21:39:00,
2013-01-28 14:54:00,34.3,30.0,29.80,SSE,148,6.0,-999.0,83,-99.99,,,0.03,weatherlink.com 1.10,2013-01-28 21:54:00,
2013-01-28 15:09:00,34.1,29.0,29.80,ESE,111,3.0,-999.0,81,-99.99,,,0.04,weatherlink.com 1.10,2013-01-28 22:09:00,
2013-01-28 15:24:00,34.0,28.0,29.80,ESE,104,3.0,-999.0,80,-99.99,,,0.04,weatherlink.com 1.10,2013-01-28 22:24:00,
2013-01-28 15:39:00,34.1,29.0,29.80,ESE,118,2.0,-999.0,80,-99.99,,,0.05,weatherlink.com 1.10,2013-01-28 22:39:00,
2013-01-28 15:54:00,34.6,28.0,29.81,ESE,110,4.0,-999.0,78,-99.99,,,0.05,weatherlink.com 1.10,2013-01-28 22:54:00,
2013-01-28 16:09:00,34.9,28.0,29.80,East,98,3.0,-999.0,77,-99.99,,,0.05,weatherlink.com 1.10,2013-01-28 23:09:00,
2013-01-28 16:24:00,33.5,27.0,29.81,SSE,165,5.0,-999.0,76,-99.99,,,0.05,weatherlink.com 1.10,2013-01-28 23:24:00,
2013-01-28 16:39:00,32.8,26.0,29.83,East,93,0.0,-999.0,75,-99.99,,,0.05,weatherlink.com 1.10,2013-01-28 23:39:00,
2013-01-28 16:54:00,33.1,25.0,29.83,East,97,0.0,-999.0,73,-99.99,,,0.05,weatherlink.com 1.10,2013-01-28 23:54:00,
2013-01-28 17:09:00,34.4,24.0,29.83,West,270,0.0,-999.0,65,-99.99,,,0.05,weatherlink.com 1.10,2013-01-29 00:09:00,
2013-01-28 17:24:00,34.4,24.0,29.82,West,270,0.0,-999.0,67,-99.99,,,0.05,weatherlink.com 1.10,2013-01-29 00:24:00,
2013-01-28 17:39:00,33.8,25.0,29.82,East,99,0.0,-999.0,70,-99.99,,,0.05,weatherlink.com 1.10,2013-01-29 00:39:00,
2013-01-28 17:54:00,33.5,25.0,29.83,ESE,113,2.0,-999.0,70,-99.99,,,0.05,weatherlink.com 1.10,2013-01-29 00:54:00,
2013-01-28 18:09:00,33.1,24.0,29.84,ESE,107,3.0,-999.0,70,-99.99,,,0.05,weatherlink.com 1.10,2013-01-29 01:09:00,
2013-01-28 18:24:00,32.9,24.0,29.83,SSE,151,1.0,-999.0,70,-99.99,,,0.05,weatherlink.com 1.10,2013-01-29 01:24:00,
2013-01-28 18:39:00,32.9,24.0,29.84,ESE,119,0.0,-999.0,69,-99.99,,,0.05,weatherlink.com 1.10,2013-01-29 01:39:00,
2013-01-28 18:54:00,33.2,23.0,29.85,ESE,119,0.0,-999.0,67,-99.99,,,0.05,weatherlink.com 1.10,2013-01-29 01:54:00,
2013-01-28 19:09:00,33.1,24.0,29.85,ESE,119,0.0,-999.0,68,-99.99,,,0.05,weatherlink.com 1.10,2013-01-29 02:09:00,
2013-01-28 19:24:00,32.7,24.0,29.85,ESE,119,0.0,-999.0,69,-99.99,,,0.05,weatherlink.com 1.10,2013-01-29 02:24:00,
2013-01-28 19:39:00,32.1,23.0,29.85,ESE,119,0.0,-999.0,70,-99.99,,,0.05,weatherlink.com 1.10,2013-01-29 02:39:00,
2013-01-28 19:55:00,30.9,23.0,29.86,ESE,119,0.0,-999.0,72,-99.99,,,0.05,weatherlink.com 1.10,2013-01-29 02:55:00,
2013-01-28 20:10:00,29.4,22.0,29.87,ESE,119,0.0,-999.0,75,-99.99,,,0.05,weatherlink.com 1.10,2013-01-29 03:10:00,
2013-01-28 20:25:00,28.5,22.0,29.91,ESE,119,0.0,-999.0,77,-99.99,,,0.05,weatherlink.com 1.10,2013-01-29 03:25:00,
2013-01-28 20:40:00,28.1,22.0,29.92,ESE,119,0.0,-999.0,79,-99.99,,,0.05,weatherlink.com 1.10,2013-01-29 03:40:00,
2013-01-28 20:55:00,26.9,21.0,29.93,ESE,119,0.0,-999.0,79,-99.99,,,0.05,weatherlink.com 1.10,2013-01-29 03:55:00,
2013-01-28 21:10:00,26.6,21.0,29.95,SSW,202,0.0,-999.0,78,-99.99,,,0.05,weatherlink.com 1.10,2013-01-29 04:10:00,
2013-01-28 21:25:00,27.3,19.0,29.95,West,263,0.0,-999.0,70,-99.99,,,0.05,weatherlink.com 1.10,2013-01-29 04:25:00,
2013-01-28 21:40:00,27.6,18.0,29.94,West,263,0.0,-999.0,67,-99.99,,,0.05,weatherlink.com 1.10,2013-01-29 04:40:00,
2013-01-28 21:55:00,29.0,12.0,29.95,West,277,4.0,-999.0,50,-99.99,,,0.05,weatherlink.com 1.10,2013-01-29 04:55:00,
2013-01-28 22:10:00,30.1,13.0,29.93,West,268,0.0,-999.0,49,-99.99,,,0.05,weatherlink.com 1.10,2013-01-29 05:10:00,
2013-01-28 22:25:00,30.1,13.0,29.89,West,268,0.0,-999.0,49,-99.99,,,0.05,weatherlink.com 1.10,2013-01-29 05:25:00,
2013-01-28 22:40:00,30.3,13.0,29.89,WNW,294,0.0,-999.0,49,-99.99,,,0.05,weatherlink.com 1.10,2013-01-29 05:40:00,
2013-01-28 22:55:00,29.8,14.0,29.89,WNW,294,0.0,-999.0,52,-99.99,,,0.05,weatherlink.com 1.10,2013-01-29 05:55:00,
2013-01-28 23:10:00,30.3,14.0,29.89,NW,304,1.0,-999.0,50,-99.99,,,0.00,weatherlink.com 1.10,2013-01-29 06:10:00,
2013-01-28 23:25:00,30.9,13.0,29.89,WSW,255,1.0,-999.0,48,-99.99,,,0.00,weatherlink.com 1.10,2013-01-29 06:25:00,
2013-01-28 23:40:00,30.7,13.0,29.89,SSW,207,1.0,-999.0,47,-99.99,,,0.00,weatherlink.com 1.10,2013-01-29 06:40:00,
2013-01-28 23:55:00,30.7,12.0,29.89,West,271,0.0,-999.0,46,-99.99,,,0.00,weatherlink.com 1.10,2013-01-29 06:55:00,